Regional Weather Roundup
Issued by NWS

Home | Current Version | Previous Version | Graphics & Text | Print | Product List | Glossary On
Versions: 1 2 3 4 5 6 7 8 9 10 11 12 13 14 15 16 17 18 19 20 21 22 23 24 25 26 27 28 29 30 31 32 33 34 35 36 37 38 39 40 41 42 43 44 45 46 47 48 49 50
000
ASUS43 KFSD 302302
RWRSD

WEATHER ROUNDUP FOR SOUTH DAKOTA
NATIONAL WEATHER SERVICE SIOUX FALLS SD
600 PM CDT MON MAR 30 2015

NOTE: "FAIR" INDICATES FEW OR NO CLOUDS BELOW 12,000 FEET WITH NO
SIGNIFICANT WEATHER AND/OR OBSTRUCTIONS TO VISIBILITY.


SDZ001>005-009-010-012>017-310000-
NORTHWEST AND NORTH CENTRAL SOUTH DAKOTA

CITY           SKY/WX    TMP DP  RH WIND       PRES   REMARKS
BUFFALO          N/A     67  25  20 NW20G31   29.93F
FAITH            N/A     69  25  19 NW22G29   29.95F
MOBRIDGE       SUNNY     70  28  21 NW18      29.90R
$$

SDZ012>016-024>037-041>051-057-063-072>074-310000-
SOUTHWEST AND SOUTH CENTRAL SOUTH DAKOTA

CITY           SKY/WX    TMP DP  RH WIND       PRES   REMARKS
RAPID CTY ARPT MOSUNNY   68  30  24 N24G33    29.98F
PIERRE         SUNNY     71  28  20 NW21G31   29.91S
CUSTER         MOSUNNY   60  21  22 W14G21    30.07F
PHILIP         SUNNY     71  22  15 NW18G30   29.95F
PINE RIDGE     SUNNY     70  26  19 NE6       30.00F
WINNER         FAIR      74  23  15 NW24G31   29.93F
$$

SDZ004>011-016>023-039-040-310000-
NORTHEAST SOUTH DAKOTA

CITY           SKY/WX    TMP DP  RH WIND       PRES   REMARKS
ABERDEEN       SUNNY     69  32  25 NW24G31   29.87R
WATERTOWN      MOSUNNY   66  34  30 NW23G31   29.84R
SISSETON         N/A     66  35  31 N26G36    29.80R
$$

SDZ017-020-022-023-036>040-048>070-310000-
SOUTHEAST SOUTH DAKOTA

CITY           SKY/WX    TMP DP  RH WIND       PRES   REMARKS
SIOUX FALLS    MOSUNNY   73  26  17 NW25G35   29.82F
HURON          SUNNY     71  31  22 NW28G36   29.85R
MITCHELL       SUNNY     74  25  16 NW29G35   29.86S
YANKTON        MOSUNNY   73  30  20 NW21G28   29.86S
$$

ABBREVIATIONS USED IN REMARKS
   TC - TEMPERATURE IN CELSIUS
  WCI - WIND CHILL INDEX
   HX - HEAT INDEX
  VSB - VISIBILITY




USA.gov is the U.S. government's official web portal to all federal, state and local government web resources and services.